AISTECHSAT 3 (44103 NORAD) Tracking and Keplerian Element Data

This shows tracking and keplerian element data for the satellite.

Feedback or suggestion? Click here.




ElementValue
Catalog44103
NameAISTECHSAT 3
Epoch Orbit309
Epoch Day111.71260212
Epoch Year2019
RAAN172.1251
Inclination97.4623
Eccentricity0.0012494
Argument of Perigee225.3141
Mean Anonmoly134.7079
Mean Motion15.2251172
Decay Rate8.31E-06
L11 44103U 19018AB 19111.71260212 .00000831 00000-0 38863-4 0 9999
L22 44103 97.4623 172.1251 0012494 225.3141 134.7079 15.22511720 3091

Live tracking and technical data element details for AISTECHSAT 3 (NORAD 44103). AISTECHSAT 3 can be tracked NOW for your location showing map with azimuth and elevation plus other details from your city location.

Track the satellite on the map from your city or location and see movement details for azimuth, elevation, latitude, longitude, range, height, and movement on the map or in text.







IsCatalogInMostPopularTable: catalog: 44103, numindb: 14
Update: records affected: 1



GetName: 44103 AISTECHSAT 3

Hit Count: updated at: Tue, 23 Apr 2019 02:42:32 GMT